Location: Maiden
(35.5760°N, 81.2120°W)
Time: 06:33:17
(UTC-04:00)

Vanguard 2 - Visible Passes

Search period start: 10 August 2020 00:00
Search period end: 20 August 2020 00:00
Orbit: 553 x 2938 km, 32.9° (Epoch: 09 August)

Date Brightness Start Highest point End Pass type
(mag) Time Alt. Az. Time Alt. Az. Time Alt. Az.
10 Aug 9.1 00:01:19 10° W 00:16:28 79° S 00:17:08 77° SE visible
10 Aug 10.7 02:15:07 10° W 02:18:33 20° W 02:18:33 20° W visible
10 Aug 9.8 22:05:52 10° WSW 22:23:09 72° SSE 22:32:28 21° E visible
11 Aug 9.2 00:19:35 10° W 00:33:52 76° SW 00:33:52 76° SW visible
11 Aug 10.9 02:33:25 10° W 02:35:16 15° W 02:35:16 15° W visible
11 Aug 9.8 22:23:55 10° WSW 22:41:14 77° S 22:49:06 28° E visible
12 Aug 9.4 00:37:52 10° W 00:50:30 64° WSW 00:50:30 64° WSW visible
12 Aug 11.2 02:51:48 10° W 02:51:52 10° W 02:51:52 10° W visible
12 Aug 10.3 20:29:31 10° SW 20:47:07 63° SSE 21:01:11 10° E visible
12 Aug 9.7 22:42:06 10° W 22:59:20 80° S 23:05:40 37° E visible
13 Aug 9.8 00:56:08 10° W 01:07:03 51° WSW 01:07:03 51° WSW visible
13 Aug 10.2 20:47:16 10° WSW 21:05:09 70° SSE 21:19:13 10° E visible
13 Aug 9.7 23:00:20 10° W 23:17:27 80° S 23:22:10 47° ESE visible
14 Aug 10.1 01:14:26 10° W 01:23:33 40° W 01:23:33 40° W visible
14 Aug 10.2 21:05:11 10° WSW 21:23:14 75° SSE 21:37:13 10° E visible
14 Aug 9.5 23:18:36 10° W 23:35:32 78° S 23:38:37 60° ESE visible
15 Aug 10.5 01:32:46 10° W 01:39:59 31° W 01:39:59 31° W visible
15 Aug 10.1 21:23:16 10° WSW 21:41:23 79° S 21:53:40 16° E visible
15 Aug 9.4 23:36:53 10° W 23:53:34 74° SSW 23:55:02 69° SSE visible
16 Aug 10.8 01:51:13 10° W 01:56:24 23° W 01:56:24 23° W visible
16 Aug 10.1 21:41:25 10° W 21:59:33 81° S 22:10:03 23° E visible
16 Aug 9.6 23:55:10 10° W 00:11:25 67° SSW 00:11:25 67° SSW visible
17 Aug 11.1 02:09:51 10° W 02:12:47 16° W 02:12:47 16° W visible
17 Aug 10.0 21:59:38 10° W 22:17:44 81° S 22:26:25 31° ESE visible
18 Aug 9.8 00:13:28 10° W 00:27:47 57° SW 00:27:47 57° SW visible
18 Aug 11.4 02:28:54 10° W 02:29:09 10° W 02:29:09 10° W visible
18 Aug 10.4 20:05:11 10° WSW 20:22:50 78° S 20:38:53 10° E visible
18 Aug 10.0 22:17:52 10° W 22:35:52 78° S 22:42:47 39° ESE visible
19 Aug 10.2 00:31:49 10° W 00:44:09 45° WSW 00:44:09 45° WSW visible
19 Aug 10.4 20:23:14 10° WSW 20:41:01 81° S 20:56:57 10° E visible
19 Aug 9.9 22:36:06 10° W 22:53:56 73° SSW 22:59:08 48° SE visible
